Chicago Executive Airport (PWK)


Airport Diagram
Current Weather/Forecast (VFR Conditions)
METAR KPWK 252352Z 29006KT 10SM CLR 31/12 A2992 RMK AO2 SLP126 T03060122 10328 20306 58006
TAF

All Charts
General
Chart Name Download
AIRPORT DIAGRAM
TAKEOFF MINIMUMS
ALTERNATE MINIMUMS
HOT SPOT
LAHSO

Departures
Chart Name Download
JORJO FIVE (RNAV)
MONKZ FIVE (RNAV)
MONKZ FIVE (RNAV), CONT.1
PAL-WAUKEE FIVE

Approaches
Chart Name Download
ILS OR LOC RWY 16
RNAV (GPS) RWY 16
VOR RWY 16